Time,TemperatureF,DewpointF,PressureIn,WindDirection,WindDirectionDegrees,WindSpeedMPH,WindSpeedGustMPH,Humidity,HourlyPrecipIn,Conditions,Clouds,dailyrainin,SoftwareType,DateUTC
2013-05-14 00:01:00,40.6,32.6,29.93,NE,56,0.0,1.0,73,0.00,,,0.00,VWS V14.01,2013-05-14 04:01:00,
2013-05-14 00:11:00,40.3,32.7,29.93,NE,56,1.0,1.0,74,0.00,,,0.00,VWS V14.01,2013-05-14 04:11:00,
2013-05-14 00:21:00,39.8,32.9,29.93,NE,56,1.0,1.0,76,0.00,,,0.00,VWS V14.01,2013-05-14 04:21:00,
2013-05-14 00:31:00,39.3,32.7,29.93,NE,56,0.0,1.0,77,0.00,,,0.00,VWS V14.01,2013-05-14 04:31:00,
2013-05-14 00:41:00,39.0,32.7,29.93,NE,56,0.0,1.0,78,0.00,,,0.00,VWS V14.01,2013-05-14 04:41:00,
2013-05-14 00:51:00,38.8,32.5,29.93,NE,56,0.0,1.0,78,0.00,,,0.00,VWS V14.01,2013-05-14 04:51:00,
2013-05-14 01:01:00,38.7,32.4,29.93,NE,56,0.0,1.0,78,0.00,,,0.00,VWS V14.01,2013-05-14 05:01:00,
2013-05-14 01:11:00,38.8,32.5,29.93,NE,56,0.0,1.0,78,0.00,,,0.00,VWS V14.01,2013-05-14 05:11:00,
2013-05-14 01:21:00,38.8,32.5,29.93,NE,56,0.0,1.0,78,0.00,,,0.00,VWS V14.01,2013-05-14 05:21:00,
2013-05-14 01:31:00,38.6,32.3,29.93,NE,56,0.0,1.0,78,0.00,,,0.00,VWS V14.01,2013-05-14 05:31:00,
2013-05-14 01:41:00,38.4,32.2,29.93,NE,56,1.0,1.0,78,0.00,,,0.00,VWS V14.01,2013-05-14 05:41:00,
2013-05-14 01:51:00,38.3,32.4,29.93,NE,56,0.0,1.0,79,0.00,,,0.00,VWS V14.01,2013-05-14 05:51:00,
2013-05-14 02:01:00,38.1,32.2,29.93,NE,56,0.0,1.0,79,0.00,,,0.00,VWS V14.01,2013-05-14 06:01:00,
2013-05-14 02:11:00,38.0,32.1,29.93,NE,56,0.0,1.0,79,0.00,,,0.00,VWS V14.01,2013-05-14 06:11:00,
2013-05-14 02:21:00,38.0,32.4,29.93,NE,56,0.0,1.0,80,0.00,,,0.00,VWS V14.01,2013-05-14 06:21:00,
2013-05-14 02:31:00,38.0,32.4,29.93,NE,56,1.0,2.0,80,0.00,,,0.00,VWS V14.01,2013-05-14 06:31:00,
2013-05-14 02:41:00,38.1,32.5,29.93,NE,56,0.0,1.0,80,0.00,,,0.00,VWS V14.01,2013-05-14 06:41:00,
2013-05-14 02:51:00,38.0,32.4,29.93,NE,56,0.0,1.0,80,0.00,,,0.00,VWS V14.01,2013-05-14 06:51:00,
2013-05-14 03:01:00,37.7,32.4,29.93,NE,56,1.0,1.0,81,0.00,,,0.00,VWS V14.01,2013-05-14 07:01:00,
2013-05-14 03:11:00,37.4,32.4,29.93,NE,56,0.0,1.0,82,0.00,,,0.00,VWS V14.01,2013-05-14 07:11:00,
2013-05-14 03:21:00,37.3,32.6,29.93,NE,56,0.0,1.0,83,0.00,,,0.00,VWS V14.01,2013-05-14 07:21:00,
2013-05-14 03:31:00,37.2,32.2,29.93,NE,56,0.0,2.0,82,0.00,,,0.00,VWS V14.01,2013-05-14 07:31:00,
2013-05-14 03:41:00,37.0,32.3,29.93,NE,56,0.0,1.0,83,0.00,,,0.00,VWS V14.01,2013-05-14 07:41:00,
2013-05-14 03:51:00,37.0,32.6,29.93,NE,56,0.0,1.0,84,0.00,,,0.00,VWS V14.01,2013-05-14 07:51:00,
2013-05-14 04:01:00,37.3,32.9,29.93,NE,56,0.0,1.0,84,0.00,,,0.00,VWS V14.01,2013-05-14 08:01:00,
2013-05-14 04:11:00,37.4,32.7,29.93,NE,56,0.0,1.0,83,0.00,,,0.00,VWS V14.01,2013-05-14 08:11:00,
2013-05-14 04:21:00,37.6,33.8,29.93,NE,56,0.0,1.0,86,0.00,,,0.00,VWS V14.01,2013-05-14 08:21:00,
2013-05-14 04:31:00,37.8,34.0,29.93,NE,56,0.0,1.0,86,0.00,,,0.00,VWS V14.01,2013-05-14 08:31:00,
2013-05-14 04:41:00,38.0,34.2,29.93,NE,53,0.0,2.0,86,0.00,,,0.00,VWS V14.01,2013-05-14 08:41:00,
2013-05-14 04:51:00,38.2,34.7,29.93,NE,53,1.0,2.0,87,0.00,,,0.00,VWS V14.01,2013-05-14 08:51:00,
2013-05-14 05:01:00,38.4,34.3,29.93,NE,53,0.0,1.0,85,0.00,,,0.00,VWS V14.01,2013-05-14 09:01:00,
2013-05-14 05:11:00,38.5,34.7,29.93,NE,53,1.0,3.0,86,0.00,,,0.00,VWS V14.01,2013-05-14 09:11:00,
2013-05-14 05:21:00,38.8,34.4,29.93,NE,53,0.0,2.0,84,0.00,,,0.00,VWS V14.01,2013-05-14 09:21:00,
2013-05-14 05:31:00,38.9,34.5,29.94,NE,46,2.0,4.0,84,0.00,,,0.00,VWS V14.01,2013-05-14 09:31:00,
2013-05-14 05:41:00,39.4,34.7,29.94,NE,46,0.0,3.0,83,0.00,,,0.00,VWS V14.01,2013-05-14 09:41:00,
2013-05-14 05:51:00,39.3,34.9,29.94,NE,46,0.0,4.0,84,0.00,,,0.00,VWS V14.01,2013-05-14 09:51:00,
2013-05-14 06:01:00,39.2,35.4,29.94,NE,46,0.0,1.0,86,0.00,,,0.00,VWS V14.01,2013-05-14 10:01:00,
2013-05-14 06:11:00,39.3,35.2,29.94,NE,46,0.0,2.0,85,0.00,,,0.00,VWS V14.01,2013-05-14 10:11:00,
2013-05-14 06:21:00,39.5,36.0,29.95,NE,46,1.0,2.0,87,0.00,,,0.00,VWS V14.01,2013-05-14 10:21:00,
2013-05-14 06:31:00,39.9,36.1,29.95,NE,46,0.0,2.0,86,0.00,,,0.00,VWS V14.01,2013-05-14 10:31:00,
2013-05-14 06:41:00,40.5,35.8,29.95,NE,36,1.0,6.0,83,0.00,,,0.00,VWS V14.01,2013-05-14 10:41:00,
2013-05-14 06:51:00,41.3,35.9,29.95,NE,36,0.0,3.0,81,0.00,,,0.00,VWS V14.01,2013-05-14 10:51:00,
2013-05-14 07:01:00,42.5,35.8,29.95,NNE,33,1.0,9.0,77,0.00,,,0.00,VWS V14.01,2013-05-14 11:01:00,
2013-05-14 07:11:00,43.3,36.6,29.95,NE,40,3.0,11.0,77,0.00,,,0.00,VWS V14.01,2013-05-14 11:11:00,
2013-05-14 07:21:00,44.1,36.4,29.95,NE,36,3.0,6.0,74,0.00,,,0.00,VWS V14.01,2013-05-14 11:21:00,
2013-05-14 07:31:00,44.7,35.5,29.96,NE,53,3.0,9.0,70,0.00,,,0.00,VWS V14.01,2013-05-14 11:31:00,
2013-05-14 07:41:00,45.2,35.7,29.96,NE,34,1.0,7.0,69,0.00,,,0.00,VWS V14.01,2013-05-14 11:41:00,
2013-05-14 07:51:00,45.8,35.1,29.96,West,277,2.0,7.0,66,0.00,,,0.00,VWS V14.01,2013-05-14 11:51:00,
2013-05-14 08:01:00,46.3,34.4,29.96,NE,42,3.0,12.0,63,0.00,,,0.00,VWS V14.01,2013-05-14 12:01:00,
2013-05-14 08:21:00,47.1,33.9,29.96,WSW,240,1.0,7.0,60,0.00,,,0.00,VWS V14.01,2013-05-14 12:21:00,
2013-05-14 08:31:00,47.5,33.9,29.96,NE,47,2.0,11.0,59,0.00,,,0.00,VWS V14.01,2013-05-14 12:31:00,
2013-05-14 08:41:00,48.0,33.9,29.96,NE,37,1.0,9.0,58,0.00,,,0.00,VWS V14.01,2013-05-14 12:41:00,
2013-05-14 08:51:00,48.3,34.7,29.96,NNE,28,2.0,13.0,59,0.00,,,0.00,VWS V14.01,2013-05-14 12:51:00,
2013-05-14 09:01:00,48.8,34.7,29.95,NE,40,2.0,9.0,58,0.00,,,0.00,VWS V14.01,2013-05-14 13:01:00,
2013-05-14 09:11:00,49.2,34.2,29.95,SW,225,2.0,11.0,56,0.00,,,0.00,VWS V14.01,2013-05-14 13:11:00,
2013-05-14 09:21:00,49.7,34.2,29.95,NE,54,2.0,8.0,55,0.00,,,0.00,VWS V14.01,2013-05-14 13:21:00,
2013-05-14 09:31:00,50.1,33.7,29.95,NE,47,6.0,7.0,53,0.00,,,0.00,VWS V14.01,2013-05-14 13:31:00,
2013-05-14 09:41:00,50.5,34.5,29.95,NE,42,1.0,12.0,54,0.00,,,0.00,VWS V14.01,2013-05-14 13:41:00,
2013-05-14 09:51:00,51.0,33.5,29.95,NE,52,6.0,12.0,51,0.00,,,0.00,VWS V14.01,2013-05-14 13:51:00,
2013-05-14 10:01:00,51.2,34.7,29.95,NE,51,1.0,9.0,53,0.00,,,0.00,VWS V14.01,2013-05-14 14:01:00,
2013-05-14 10:11:00,51.5,33.5,29.95,NE,53,3.0,10.0,50,0.00,,,0.00,VWS V14.01,2013-05-14 14:11:00,
2013-05-14 10:21:00,51.8,33.8,29.94,ENE,57,1.0,10.0,50,0.00,,,0.00,VWS V14.01,2013-05-14 14:21:00,
2013-05-14 10:31:00,52.4,32.8,29.94,ENE,57,3.0,9.0,47,0.00,,,0.00,VWS V14.01,2013-05-14 14:31:00,
2013-05-14 10:41:00,53.2,33.5,29.94,West,261,2.0,8.0,47,0.00,,,0.00,VWS V14.01,2013-05-14 14:41:00,
2013-05-14 10:51:00,53.7,31.8,29.95,ENE,62,1.0,10.0,43,0.00,,,0.00,VWS V14.01,2013-05-14 14:51:00,
2013-05-14 11:01:00,54.2,32.8,29.95,ENE,60,2.0,7.0,44,0.00,,,0.00,VWS V14.01,2013-05-14 15:01:00,
2013-05-14 11:11:00,54.7,33.2,29.95,ENE,74,3.0,5.0,44,0.00,,,0.00,VWS V14.01,2013-05-14 15:11:00,
2013-05-14 11:21:00,54.3,32.3,29.95,NNW,342,2.0,6.0,43,0.00,,,0.00,VWS V14.01,2013-05-14 15:21:00,
2013-05-14 11:31:00,54.5,30.7,29.95,East,82,4.0,5.0,40,0.00,,,0.00,VWS V14.01,2013-05-14 15:31:00,
2013-05-14 11:41:00,54.4,29.3,29.95,ENE,59,5.0,5.0,38,0.00,,,0.00,VWS V14.01,2013-05-14 15:41:00,
2013-05-14 11:51:00,54.8,30.3,29.94,NE,44,4.0,6.0,39,0.00,,,0.00,VWS V14.01,2013-05-14 15:51:00,
2013-05-14 12:01:00,54.6,26.8,29.94,NE,45,2.0,9.0,34,0.00,,,0.00,VWS V14.01,2013-05-14 16:01:00,
2013-05-14 12:11:00,55.1,28.6,29.94,NE,48,11.0,11.0,36,0.00,,,0.00,VWS V14.01,2013-05-14 16:11:00,
2013-05-14 12:21:00,55.2,30.7,29.94,NE,45,3.0,11.0,39,0.00,,,0.00,VWS V14.01,2013-05-14 16:21:00,
2013-05-14 12:31:00,56.1,28.1,29.93,South,189,2.0,6.0,34,0.00,,,0.00,VWS V14.01,2013-05-14 16:31:00,
2013-05-14 12:41:00,56.6,27.9,29.93,ENE,63,2.0,10.0,33,0.00,,,0.00,VWS V14.01,2013-05-14 16:41:00,
2013-05-14 12:51:00,56.4,29.1,29.93,NE,42,2.0,3.0,35,0.00,,,0.00,VWS V14.01,2013-05-14 16:51:00,
2013-05-14 13:01:00,55.5,29.0,29.93,NE,51,4.0,11.0,36,0.00,,,0.00,VWS V14.01,2013-05-14 17:01:00,
2013-05-14 13:11:00,55.3,28.8,29.93,NE,55,4.0,7.0,36,0.00,,,0.00,VWS V14.01,2013-05-14 17:11:00,
2013-05-14 13:21:00,56.1,30.9,29.93,ENE,63,1.0,11.0,38,0.00,,,0.00,VWS V14.01,2013-05-14 17:21:00,
2013-05-14 13:31:00,55.9,30.7,29.93,ENE,63,2.0,5.0,38,0.00,,,0.00,VWS V14.01,2013-05-14 17:31:00,
2013-05-14 13:41:00,57.2,30.5,29.93,ENE,71,1.0,7.0,36,0.00,,,0.00,VWS V14.01,2013-05-14 17:41:00,
2013-05-14 13:51:00,58.0,31.2,29.93,NNE,33,1.0,9.0,36,0.00,,,0.00,VWS V14.01,2013-05-14 17:51:00,
2013-05-14 14:01:00,58.6,28.9,29.92,ENE,58,1.0,10.0,32,0.00,,,0.00,VWS V14.01,2013-05-14 18:01:00,
2013-05-14 14:11:00,58.6,28.9,29.92,ENE,61,7.0,7.0,32,0.00,,,0.00,VWS V14.01,2013-05-14 18:11:00,
2013-05-14 14:21:00,58.5,28.8,29.93,NE,40,2.0,11.0,32,0.00,,,0.00,VWS V14.01,2013-05-14 18:21:00,
2013-05-14 14:31:00,58.4,27.1,29.92,NNE,24,5.0,11.0,30,0.00,,,0.00,VWS V14.01,2013-05-14 18:31:00,
2013-05-14 14:41:00,58.5,28.0,29.92,NE,52,3.0,7.0,31,0.00,,,0.00,VWS V14.01,2013-05-14 18:41:00,
2013-05-14 14:51:00,58.3,27.8,29.92,East,84,2.0,16.0,31,0.00,,,0.00,VWS V14.01,2013-05-14 18:51:00,
2013-05-14 15:01:00,58.3,27.8,29.92,NNE,28,2.0,9.0,31,0.00,,,0.00,VWS V14.01,2013-05-14 19:01:00,
2013-05-14 15:11:00,58.1,30.6,29.92,ENE,67,1.0,8.0,35,0.00,,,0.00,VWS V14.01,2013-05-14 19:11:00,
2013-05-14 15:21:00,58.1,28.4,29.91,North,355,1.0,11.0,32,0.00,,,0.00,VWS V14.01,2013-05-14 19:21:00,
2013-05-14 15:31:00,57.8,28.9,29.91,East,80,3.0,12.0,33,0.00,,,0.00,VWS V14.01,2013-05-14 19:31:00,
2013-05-14 15:41:00,58.0,27.6,29.91,ENE,61,3.0,13.0,31,0.00,,,0.00,VWS V14.01,2013-05-14 19:41:00,
2013-05-14 15:51:00,58.2,26.9,29.90,ENE,57,1.0,9.0,30,0.00,,,0.00,VWS V14.01,2013-05-14 19:51:00,
2013-05-14 16:01:00,58.8,27.5,29.90,NE,40,3.0,12.0,30,0.00,,,0.00,VWS V14.01,2013-05-14 20:01:00,
2013-05-14 16:11:00,59.2,27.0,29.90,NE,56,9.0,11.0,29,0.00,,,0.00,VWS V14.01,2013-05-14 20:11:00,
2013-05-14 16:21:00,59.3,27.1,29.90,NNE,20,9.0,11.0,29,0.00,,,0.00,VWS V14.01,2013-05-14 20:21:00,
2013-05-14 16:31:00,59.9,28.4,29.90,ENE,59,2.0,9.0,30,0.00,,,0.00,VWS V14.01,2013-05-14 20:31:00,
2013-05-14 16:41:00,60.6,26.5,29.90,ESE,102,3.0,9.0,27,0.00,,,0.00,VWS V14.01,2013-05-14 20:41:00,
2013-05-14 16:51:00,61.1,28.6,29.89,NE,48,2.0,10.0,29,0.00,,,0.00,VWS V14.01,2013-05-14 20:51:00,
2013-05-14 17:01:00,61.2,27.0,29.89,NE,44,3.0,12.0,27,0.00,,,0.00,VWS V14.01,2013-05-14 21:01:00,
2013-05-14 17:11:00,61.5,28.1,29.89,NE,42,1.0,10.0,28,0.00,,,0.00,VWS V14.01,2013-05-14 21:11:00,
2013-05-14 17:21:00,62.1,28.6,29.89,NE,49,2.0,6.0,28,0.00,,,0.00,VWS V14.01,2013-05-14 21:21:00,
2013-05-14 17:31:00,61.1,28.6,29.89,ENE,61,2.0,11.0,29,0.00,,,0.00,VWS V14.01,2013-05-14 21:31:00,
2013-05-14 17:41:00,60.4,28.0,29.89,NE,56,2.0,9.0,29,0.00,,,0.00,VWS V14.01,2013-05-14 21:41:00,
2013-05-14 17:51:00,59.8,27.5,29.89,ENE,67,2.0,8.0,29,0.00,,,0.00,VWS V14.01,2013-05-14 21:51:00,
2013-05-14 18:01:00,59.2,27.0,29.89,NE,55,6.0,6.0,29,0.00,,,0.00,VWS V14.01,2013-05-14 22:01:00,
2013-05-14 18:11:00,58.7,28.2,29.89,NE,48,2.0,5.0,31,0.00,,,0.00,VWS V14.01,2013-05-14 22:11:00,
2013-05-14 18:21:00,59.6,31.9,29.89,NE,48,2.0,4.0,35,0.00,,,0.00,VWS V14.01,2013-05-14 22:21:00,
2013-05-14 18:31:00,59.4,38.1,29.89,East,81,1.0,7.0,45,0.00,,,0.00,VWS V14.01,2013-05-14 22:31:00,
2013-05-14 18:41:00,59.0,37.7,29.89,ENE,76,1.0,5.0,45,0.00,,,0.00,VWS V14.01,2013-05-14 22:41:00,
2013-05-14 18:51:00,58.2,38.1,29.89,ESE,107,2.0,10.0,47,0.00,,,0.00,VWS V14.01,2013-05-14 22:51:00,
2013-05-14 19:01:00,57.6,40.1,29.89,East,92,4.0,5.0,52,0.00,,,0.00,VWS V14.01,2013-05-14 23:01:00,
2013-05-14 19:11:00,57.0,39.1,29.89,ENE,71,2.0,6.0,51,0.00,,,0.00,VWS V14.01,2013-05-14 23:11:00,
2013-05-14 19:21:00,55.6,39.2,29.90,ENE,71,1.0,7.0,54,0.00,,,0.00,VWS V14.01,2013-05-14 23:21:00,
2013-05-14 19:31:00,54.8,39.9,29.90,ENE,66,2.0,9.0,57,0.00,,,0.00,VWS V14.01,2013-05-14 23:31:00,
2013-05-14 19:41:00,54.0,40.0,29.90,ESE,113,0.0,7.0,59,0.00,,,0.00,VWS V14.01,2013-05-14 23:41:00,
2013-05-14 19:51:00,53.4,40.3,29.90,ENE,76,1.0,4.0,61,0.00,,,0.00,VWS V14.01,2013-05-14 23:51:00,
2013-05-14 20:01:00,52.9,40.2,29.90,NE,54,1.0,4.0,62,0.00,,,0.00,VWS V14.01,2013-05-15 00:01:00,
2013-05-14 20:11:00,52.5,40.3,29.90,ESE,120,1.0,3.0,63,0.00,,,0.00,VWS V14.01,2013-05-15 00:11:00,
2013-05-14 20:21:00,52.1,40.7,29.90,ESE,118,0.0,3.0,65,0.00,,,0.00,VWS V14.01,2013-05-15 00:21:00,
2013-05-14 20:31:00,51.8,40.8,29.91,East,96,1.0,2.0,66,0.00,,,0.00,VWS V14.01,2013-05-15 00:31:00,
2013-05-14 20:41:00,51.7,41.1,29.91,East,96,1.0,1.0,67,0.00,,,0.00,VWS V14.01,2013-05-15 00:41:00,
2013-05-14 20:51:00,51.4,41.2,29.92,East,96,0.0,1.0,68,0.00,,,0.00,VWS V14.01,2013-05-15 00:51:00,
2013-05-14 21:01:00,51.0,41.2,29.92,East,96,0.0,1.0,69,0.00,,,0.00,VWS V14.01,2013-05-15 01:01:00,
2013-05-14 21:11:00,50.5,41.1,29.92,East,96,0.0,1.0,70,0.00,,,0.00,VWS V14.01,2013-05-15 01:11:00,
2013-05-14 21:21:00,50.0,41.0,29.92,East,96,0.0,1.0,71,0.00,,,0.00,VWS V14.01,2013-05-15 01:21:00,
2013-05-14 21:31:00,49.4,41.1,29.93,East,96,0.0,1.0,73,0.00,,,0.00,VWS V14.01,2013-05-15 01:31:00,
2013-05-14 21:41:00,48.8,40.9,29.93,East,96,0.0,0.0,74,0.00,,,0.00,VWS V14.01,2013-05-15 01:41:00,
2013-05-14 21:51:00,48.3,40.8,29.93,East,96,0.0,1.0,75,0.00,,,0.00,VWS V14.01,2013-05-15 01:51:00,
2013-05-14 22:01:00,47.9,41.0,29.93,East,96,0.0,1.0,77,0.00,,,0.00,VWS V14.01,2013-05-15 02:01:00,
2013-05-14 22:11:00,47.6,40.8,29.93,East,96,0.0,0.0,77,0.00,,,0.00,VWS V14.01,2013-05-15 02:11:00,
2013-05-14 22:21:00,47.4,40.9,29.93,East,96,0.0,0.0,78,0.00,,,0.00,VWS V14.01,2013-05-15 02:21:00,
2013-05-14 22:31:00,47.2,40.7,29.93,East,96,0.0,0.0,78,0.00,,,0.00,VWS V14.01,2013-05-15 02:31:00,
2013-05-14 22:41:00,47.0,41.2,29.93,East,96,0.0,1.0,80,0.00,,,0.00,VWS V14.01,2013-05-15 02:41:00,
2013-05-14 22:51:00,46.9,41.1,29.93,East,96,0.0,0.0,80,0.00,,,0.00,VWS V14.01,2013-05-15 02:51:00,
2013-05-14 23:01:00,46.8,41.3,29.93,ESE,109,0.0,2.0,81,0.00,,,0.00,VWS V14.01,2013-05-15 03:01:00,
2013-05-14 23:11:00,46.8,41.3,29.93,ESE,109,0.0,1.0,81,0.00,,,0.00,VWS V14.01,2013-05-15 03:11:00,
2013-05-14 23:21:00,46.9,41.4,29.93,ESE,109,0.0,1.0,81,0.00,,,0.00,VWS V14.01,2013-05-15 03:21:00,
2013-05-14 23:31:00,46.6,41.4,29.94,ESE,109,0.0,1.0,82,0.00,,,0.00,VWS V14.01,2013-05-15 03:31:00,
2013-05-14 23:41:00,46.5,41.3,29.94,ESE,109,0.0,1.0,82,0.00,,,0.00,VWS V14.01,2013-05-15 03:41:00,
2013-05-14 23:51:00,46.3,41.1,29.94,ESE,109,0.0,0.0,82,0.00,,,0.00,VWS V14.01,2013-05-15 03:51:00,